Zurück zum Katalog

COSMOS 931 DEB

LostHEO
NORAD 12815·DEBRIS·🇷🇺 Russia

Gestartet Jul 20, 1977 von Plesetsk Cosmodrome

Loading…

Nächste Überflüge (nächste 24 Stunden)

TLE

VeraltetSource: Space-Track

Epoche: Jun 8, 2024, 22:42 UTC

1 12815U 77068E   24160.94635836 -.00000553  00000-0  00000+0 0  9995
2 12815  68.9809 322.0106 5714684 340.6315 359.4713  2.01211415136920

Verfolge COSMOS 931 DEB in Echtzeit mit AllMySat

Download on the App Store